Change the Weather History Date:

Saturday, June 22, 2013

  Actual Average Record
Temperature  
Mean Temperature 80 °F -  
Max Temperature 89 °F 83 °F 91 °F (1997)
Min Temperature 71 °F 63 °F 62 °F (1999)
Cooling Degree Days 15    
Growing Degree Days 30 (Base 50)    
Moisture  
Dew Point 64 °F    
Average Humidity 60    
Maximum Humidity 83    
Minimum Humidity 35    
Precipitation  
Precipitation 0.00 in 0.04 in - ()
Sea Level Pressure  
Sea Level Pressure 30.02 in    
Wind  
Wind Speed 4 mph ()    
Max Wind Speed 13 mph    
Max Gust Speed -    
Visibility 6.2 miles    
Events      
Averages and records for this station are not official NWS values.
T = Trace of Precipitation, MM = Missing Value Source: Averaged Metar Reports

Daily Weather History Graph

Daily Weather History Graph

Search for Another Location

Airport or City:

Trip Planner

Search our weather history database for the weather conditions in past years. The results will help you decide how hot, cold, wet, or windy it might be!

Date:

Astronomy

Jun. 22, 2013 Rise Set
Actual Time 5:31 AM CEST 8:38 PM CEST
Civil Twilight 4:57 AM CEST 9:11 PM CEST
Nautical Twilight 4:14 AM CEST 9:54 PM CEST
Astronomical Twilight 3:24 AM CEST 10:45 PM CEST
Moon 7:34 PM CEST (6/22) 4:27 AM CEST (6/22)
Length of Visible Light 16h 13m
Length of Day
15h 06m
Waxing Gibbous, 98% of the Moon is Illuminated
Jun 22
Waxing Gibbous
Jun 23
Full
Jun 30
Last Quarter
Jul 8
New
Jul 16
First Quarter

Hourly Weather History & Observations

Time (CEST) Temp. Heat Index Dew Point Humidity Pressure Visibility Wind Dir Wind Speed Gust Speed Precip Events Conditions
12:20 AM 77.0 °F - 64.4 °F 65% 30.04 in - WNW 4.6 mph - N/A   Clear
12:50 AM 75.2 °F - 62.6 °F 65% 30.04 in - WNW 3.5 mph - N/A   Clear
1:20 AM 75.2 °F - 66.2 °F 73% 30.04 in - West 2.3 mph - N/A   Clear
1:50 AM 75.2 °F - 66.2 °F 73% 30.04 in - Variable 1.2 mph - N/A   Clear
2:50 AM 75.2 °F - 66.2 °F 73% 30.01 in - East 3.5 mph - N/A   Clear
3:20 AM 73.4 °F - 64.4 °F 73% 30.01 in - Variable 1.2 mph - N/A   Clear
3:50 AM 71.6 °F - 64.4 °F 78% 30.01 in - Variable 1.2 mph - N/A   Clear
4:20 AM 71.6 °F - 66.2 °F 83% 29.98 in - Variable 2.3 mph - N/A   Clear
4:50 AM 71.6 °F - 64.4 °F 78% 29.98 in - Variable 2.3 mph - N/A   Clear
5:20 AM 71.6 °F - 64.4 °F 78% 30.01 in - NW 4.6 mph - N/A   Clear
5:50 AM 73.4 °F - 64.4 °F 73% 30.01 in - Variable 2.3 mph - N/A   Clear
6:20 AM 71.6 °F - 62.6 °F 73% 30.01 in - ENE 3.5 mph - N/A   Clear
6:50 AM 73.4 °F - 62.6 °F 69% 30.01 in - Variable 2.3 mph - N/A   Clear
7:20 AM 75.2 °F - 64.4 °F 69% 30.01 in - Variable 2.3 mph - N/A   Clear
7:50 AM 78.8 °F - 66.2 °F 65% 30.04 in - Variable 1.2 mph - N/A   Clear
8:20 AM 78.8 °F - 66.2 °F 65% 30.04 in - South 3.5 mph - N/A   Clear
8:50 AM 80.6 °F 83.2 °F 68.0 °F 65% 30.04 in - South 4.6 mph - N/A   Clear
9:20 AM 82.4 °F 85.4 °F 68.0 °F 62% 30.04 in - Variable 3.5 mph - N/A   Clear
9:50 AM 82.4 °F 85.4 °F 68.0 °F 62% 30.04 in - South 5.8 mph - N/A   Clear
10:20 AM 82.4 °F 84.6 °F 66.2 °F 58% 30.04 in - South 6.9 mph - N/A   Clear
10:50 AM 84.2 °F 86.6 °F 66.2 °F 55% 30.04 in 6.2 mi South 6.9 mph - N/A   Partly Cloudy
11:20 AM 86.0 °F 89.4 °F 68.0 °F 55% 30.04 in 6.2 mi SSE 5.8 mph - N/A   Partly Cloudy
11:50 AM 86.0 °F 87.3 °F 64.4 °F 48% 30.04 in - South 6.9 mph - N/A   Clear
12:20 PM 86.0 °F 86.6 °F 62.6 °F 45% 30.04 in - South 8.1 mph - N/A   Clear
12:50 PM 86.0 °F 86.6 °F 62.6 °F 45% 30.01 in - South 8.1 mph - N/A   Clear
1:20 PM 87.8 °F 87.6 °F 60.8 °F 40% 30.04 in - SW 6.9 mph - N/A   Clear
1:50 PM 86.0 °F 86.6 °F 62.6 °F 45% 30.01 in - WNW 8.1 mph - N/A   Clear
2:20 PM 87.8 °F 87.1 °F 59.0 °F 38% 30.01 in - Variable 6.9 mph - N/A   Clear
2:50 PM 87.8 °F 87.1 °F 59.0 °F 38% 30.01 in 6.2 mi NW 6.9 mph - N/A   Partly Cloudy
3:20 PM 89.6 °F 89.5 °F 60.8 °F 38% 30.01 in 6.2 mi WNW 6.9 mph - N/A   Partly Cloudy
3:50 PM 86.0 °F 85.4 °F 59.0 °F 40% 30.01 in 6.2 mi West 8.1 mph - N/A   Partly Cloudy
4:20 PM 86.0 °F 86.1 °F 60.8 °F 43% 30.01 in 6.2 mi NW 8.1 mph - N/A   Mostly Cloudy
4:50 PM 84.2 °F 85.0 °F 62.6 °F 48% 29.98 in 6.2 mi West 8.1 mph - N/A   Mostly Cloudy
5:20 PM 86.0 °F 86.6 °F 62.6 °F 45% 29.98 in 6.2 mi West 8.1 mph - N/A   Scattered Clouds
5:50 PM 86.0 °F 84.5 °F 55.4 °F 35% 29.98 in 6.2 mi WSW 9.2 mph - N/A   Partly Cloudy
6:20 PM 84.2 °F 84.4 °F 60.8 °F 45% 29.98 in 6.2 mi West 11.5 mph - N/A   Partly Cloudy
6:50 PM 82.4 °F 82.9 °F 60.8 °F 48% 30.01 in 6.2 mi West 9.2 mph - N/A   Partly Cloudy
7:20 PM 80.6 °F 82.3 °F 64.4 °F 58% 30.01 in 6.2 mi WNW 12.7 mph - N/A   Partly Cloudy
7:50 PM 78.8 °F - 64.4 °F 61% 30.01 in 6.2 mi WNW 12.7 mph - N/A   Partly Cloudy
8:20 PM 78.8 °F - 64.4 °F 61% 30.01 in 6.2 mi WNW 6.9 mph - N/A   Partly Cloudy
8:50 PM 77.0 °F - 64.4 °F 65% 30.01 in 6.2 mi NW 5.8 mph - N/A   Partly Cloudy
9:20 PM 75.2 °F - 64.4 °F 69% 30.01 in 6.2 mi WNW 5.8 mph - N/A   Partly Cloudy
9:50 PM 75.2 °F - 66.2 °F 73% 30.04 in 6.2 mi WNW 4.6 mph - N/A   Partly Cloudy
10:20 PM 75.2 °F - 66.2 °F 73% 30.04 in - West 3.5 mph - N/A   Clear
10:50 PM 75.2 °F - 66.2 °F 73% 30.04 in - Variable 2.3 mph - N/A   Clear
11:20 PM 75.2 °F - 64.4 °F 69% 30.04 in - WNW 3.5 mph - N/A   Clear
11:50 PM 73.4 °F - 66.2 °F 78% 30.04 in - WNW 3.5 mph - N/A   Clear